| time (UTC) | temp F | wind direction | speed MPH | gust MPH | rain 1hr in | rain 24hr in | rain mn in | humidity % | barometer mb |
| 20260504044621 | 46 | 184 | 4.0 | 4.0 | 0.00 | 0.02 | 0.02 | 91 | 997.2 |
| 20260504043118 | 46 | 208 | 7.0 | 8.0 | 0.00 | 0.02 | 0.02 | 91 | 998.0 |
| 20260504041613 | 46 | 224 | 5.0 | 6.0 | 0.07 | 0.02 | 0.02 | 91 | 998.0 |
| 20260504040109 | 46 | 222 | 6.0 | 7.0 | 0.00 | 0.04 | 0.04 | 89 | 997.7 |
| 20260504034606 | 46 | 195 | 5.0 | 8.0 | 0.00 | 0.04 | 0.04 | 91 | 997.9 |
| 20260504033103 | 45 | 196 | 5.0 | 6.0 | 0.00 | 0.04 | 0.04 | 91 | 997.8 |
| 20260504031600 | 45 | 165 | 2.0 | 3.0 | 0.00 | 0.04 | 0.04 | 90 | 998.0 |
| 20260504030055 | 45 | 198 | 6.0 | 6.0 | 0.00 | 0.04 | 0.04 | 89 | 997.9 |
| 20260504024552 | 45 | 194 | 4.0 | 6.0 | 0.00 | 0.04 | 0.04 | 87 | 998.2 |
| 20260504023047 | 45 | 215 | 4.0 | 4.0 | 0.00 | 0.04 | 0.04 | 87 | 998.3 |
| 20260504021543 | 45 | 264 | 5.0 | 6.0 | 0.00 | 0.04 | 0.04 | 85 | 998.4 |
| 20260504020039 | 45 | 189 | 9.0 | 11.0 | 0.05 | 0.03 | 0.03 | 81 | 998.5 |
| 20260504014534 | 46 | 202 | 5.0 | 6.0 | 0.07 | 0.01 | 0.01 | 75 | 998.4 |
| 20260504013032 | 47 | 220 | 5.0 | 6.0 | 0.00 | 0.00 | 0.00 | 68 | 998.6 |
| 20260504011529 | 48 | 210 | 5.0 | 7.0 | 0.00 | 0.00 | 0.00 | 59 | 998.5 |
| 20260504010029 | 47 | 191 | 4.0 | 4.0 | 0.00 | 0.00 | 0.00 | 55 | 998.4 |
| 20260504004527 | 48 | 145 | 1.0 | 1.0 | 0.00 | 0.00 | 0.00 | 51 | 998.1 |
| 20260504003023 | 48 | 165 | 2.0 | 2.0 | 0.00 | 0.00 | 0.00 | 49 | 998.3 |
| 20260504001520 | 48 | 222 | 5.0 | 4.0 | 0.00 | 0.00 | 0.00 | 45 | 998.1 |
| 20260504000016 | 49 | 264 | 6.0 | 8.0 | 0.00 | 0.00 | 0.00 | 41 | 998.0 |
| 20260503234515 | 49 | 215 | 7.0 | 8.0 | 0.00 | 0.00 | 0.00 | 37 | 998.2 |
| 20260503233011 | 49 | 222 | 9.0 | 11.0 | 0.00 | 0.00 | 0.00 | 35 | 998.5 |
| 20260503231509 | 49 | 183 | 3.0 | 3.0 | 0.00 | 0.00 | 0.00 | 35 | 998.4 |
| 20260503230006 | 49 | 170 | 3.0 | 4.0 | 0.00 | 0.00 | 0.00 | 37 | 998.2 |
| 20260503224501 | 50 | 246 | 6.0 | 6.0 | 0.00 | 0.00 | 0.00 | 36 | 998.3 |
| 20260503222957 | 50 | 259 | 5.0 | 7.0 | 0.00 | 0.00 | 0.00 | 38 | 998.5 |
| 20260503221452 | 50 | 206 | 7.0 | 9.0 | 0.00 | 0.00 | 0.00 | 37 | 998.6 |
| 20260503215948 | 51 | 239 | 9.0 | 10.0 | 0.00 | 0.00 | 0.00 | 36 | 998.5 |
| 20260503214446 | 51 | 228 | 7.0 | 8.0 | 0.00 | 0.00 | 0.00 | 39 | 998.5 |
| 20260503212943 | 52 | 240 | 8.0 | 9.0 | 0.00 | 0.00 | 0.00 | 40 | 998.4 |
| 20260503211440 | 52 | 216 | 10.0 | 14.0 | 0.00 | 0.00 | 0.00 | 38 | 998.5 |
| 20260503205939 | 51 | 215 | 10.0 | 10.0 | 0.00 | 0.00 | 0.00 | 43 | 998.9 |
| 20260503204436 | 51 | 234 | 11.0 | 13.0 | 0.00 | 0.00 | 0.00 | 47 | 999.1 |
| 20260503202933 | 51 | 278 | 9.0 | 9.0 | 0.00 | 0.00 | 0.00 | 46 | 999.1 |
| 20260503201432 | 52 | 215 | 9.0 | 14.0 | 0.00 | 0.00 | 0.00 | 41 | 999.3 |
| 20260503195928 | 51 | 240 | 11.0 | 14.0 | 0.00 | 0.00 | 0.00 | 41 | 999.2 |
| 20260503194424 | 50 | 244 | 13.0 | 17.0 | 0.00 | 0.00 | 0.00 | 43 | 999.4 |
| 20260503192923 | 51 | 262 | 8.0 | 9.0 | 0.00 | 0.00 | 0.00 | 39 | 999.7 |
| 20260503191419 | 51 | 257 | 11.0 | 14.0 | 0.00 | 0.00 | 0.00 | 38 | 999.8 |
| 20260503185915 | 50 | 198 | 10.0 | 14.0 | 0.00 | 0.00 | 0.00 | 36 | 999.9 |
| 20260503184413 | 49 | 213 | 12.0 | 14.0 | 0.00 | 0.00 | 0.00 | 38 | 1000.3 |
| 20260503182909 | 50 | 233 | 11.0 | 16.0 | 0.00 | 0.00 | 0.00 | 36 | 1000.2 |
| 20260503181408 | 50 | 267 | 8.0 | 11.0 | 0.00 | 0.00 | 0.00 | 38 | 1000.3 |
| 20260503175904 | 50 | 258 | 4.0 | 4.0 | 0.00 | 0.00 | 0.00 | 37 | 1000.4 |
| 20260503174402 | 50 | 225 | 11.0 | 11.0 | 0.00 | 0.00 | 0.00 | 34 | 1000.3 |
| 20260503172901 | 51 | 241 | 8.0 | 13.0 | 0.00 | 0.00 | 0.00 | 39 | 1000.4 |
| 20260503171358 | 49 | 248 | 12.0 | 16.0 | 0.00 | 0.00 | 0.00 | 37 | 1000.7 |
| 20260503131314 | 44 | 284 | 11.0 | 11.0 | 0.00 | 0.00 | 0.00 | 43 | 1002.3 |
| 20260503081225 | 39 | 150 | 1.0 | 1.0 | 0.00 | 0.00 | 0.00 | 78 | 1001.7 |
| 20260503072718 | 39 | 121 | 0.0 | 0.0 | 0.00 | 0.00 | 0.00 | 80 | 1001.9 |
| 20260503071214 | 39 | 157 | 2.0 | 2.0 | 0.00 | 0.00 | 0.00 | 81 | 1001.8 |
| 20260503054204 | 40 | 184 | 1.0 | 1.0 | 0.00 | 0.00 | 0.00 | 80 | 1002.1 |
| 20260503052702 | 40 | 146 | 1.0 | 1.0 | 0.00 | 0.00 | 0.00 | 80 | 1002.0 |
| 20260503051158 | 40 | 169 | 2.0 | 2.0 | 0.00 | 0.00 | 0.00 | 80 | 1002.2 |